When you browse on this site, cookies collect data to enhance your experience and personalize the content and advertising you see.
Visit our Privacy Policy to learn more. By continuing to use the site, you agree to this use of cookies and data.
  • în România
  • Lista ţărilor
  • Pe 7 zile
  • Temperatura apei
  • Hartă satelitară
  • Meteo pe hartă
  • Widget-uri
  • user-avatar
    Intrare

    Meteo pe oră la Mendoza

    Astăzi, 18 Ianuarie, Vineri

    Timp Temperatura Precipitaţii Vânt Presiune Umiditate
    00:00 +16°C° 0 mm 2 m/s 703 mmHg 69%
    01:00 +16°C° 0 mm 1 m/s 703 mmHg 70%
    02:00 +15°C° 0 mm 1 m/s 703 mmHg 71%
    03:00 +15°C° 0 mm 1 m/s 702 mmHg 72%
    04:00 +15°C° 0 mm 1 m/s 702 mmHg 72%
    05:00 +16°C° 0 mm 1 m/s 702 mmHg 67%
    06:00 +18°C° 0 mm 1 m/s 702 mmHg 62%
    07:00 +19°C° 0 mm 1 m/s 702 mmHg 57%
    08:00 +19°C° 0 mm 2 m/s 702 mmHg 50%
    09:00 +21°C° 0 mm 3 m/s 702 mmHg 43%
    10:00 +22°C° 0 mm 3 m/s 702 mmHg 36%
    11:00 +25°C° 0 mm 4 m/s 702 mmHg 33%
    12:00 +26°C° 0 mm 4 m/s 701 mmHg 30%
    13:00 +27°C° 0 mm 4 m/s 701 mmHg 27%
    14:00 +27°C° 0 mm 4 m/s 701 mmHg 27%
    15:00 +27°C° 0 mm 4 m/s 700 mmHg 26%
    16:00 +28°C° 0 mm 3 m/s 700 mmHg 26%
    17:00 +27°C° 0 mm 3 m/s 700 mmHg 27%
    18:00 +26°C° 0 mm 3 m/s 700 mmHg 29%
    19:00 +25°C° 0 mm 2 m/s 700 mmHg 30%
    20:00 +25°C° 0 mm 2 m/s 700 mmHg 32%
    21:00 +24°C° 0 mm 2 m/s 701 mmHg 33%
    22:00 +24°C° 0 mm 2 m/s 701 mmHg 34%
    23:00 +23°C° 0 mm 2 m/s 701 mmHg 37%

    Mâine, 19 Ianuarie, Sâmbătă

    Timp Temperatura Precipitaţii Vânt Presiune Umiditate
    00:00 +23°C° 0 mm 2 m/s 700 mmHg 39%
    01:00 +22°C° 0 mm 1 m/s 700 mmHg 41%
    02:00 +22°C° 0 mm 1 m/s 700 mmHg 44%
    03:00 +21°C° 0 mm 1 m/s 700 mmHg 47%
    04:00 +21°C° 0 mm 1 m/s 699 mmHg 50%
    05:00 +22°C° 0 mm 1 m/s 700 mmHg 47%
    06:00 +23°C° 0 mm 1 m/s 700 mmHg 45%
    07:00 +24°C° 0 mm 1 m/s 700 mmHg 42%
    08:00 +25°C° 0 mm 2 m/s 700 mmHg 38%
    09:00 +27°C° 0 mm 3 m/s 700 mmHg 34%
    10:00 +29°C° 0 mm 4 m/s 700 mmHg 30%
    11:00 +29°C° 0 mm 4 m/s 700 mmHg 29%
    12:00 +30°C° 0 mm 5 m/s 699 mmHg 28%
    13:00 +32°C° 0 mm 5 m/s 699 mmHg 27%
    14:00 +33°C° 0 mm 5 m/s 698 mmHg 26%
    15:00 +33°C° 0 mm 4 m/s 698 mmHg 26%
    16:00 +33°C° 0 mm 4 m/s 697 mmHg 26%
    17:00 +31°C° 0 mm 3 m/s 697 mmHg 28%
    18:00 +30°C° 0 mm 2 m/s 698 mmHg 30%
    19:00 +29°C° 0 mm 2 m/s 698 mmHg 32%
    20:00 +29°C° 0 mm 2 m/s 698 mmHg 34%
    21:00 +28°C° 0 mm 2 m/s 698 mmHg 36%
    22:00 +27°C° 0 mm 3 m/s 698 mmHg 38%
    23:00 +27°C° 0 mm 2 m/s 698 mmHg 41%

    Poimâine, 20 Ianuarie, Duminică

    Timp Temperatura Precipitaţii Vânt Presiune Umiditate
    00:00 +26°C° 0 mm 2 m/s 697 mmHg 45%
    01:00 +25°C° 0 mm 1 m/s 697 mmHg 48%
    02:00 +25°C° 0 mm 1 m/s 696 mmHg 50%
    03:00 +24°C° 0 mm 1 m/s 696 mmHg 52%
    04:00 +23°C° 0 mm 2 m/s 696 mmHg 54%
    05:00 +24°C° 0 mm 2 m/s 696 mmHg 52%
    06:00 +25°C° 0 mm 2 m/s 697 mmHg 51%
    07:00 +26°C° 0 mm 3 m/s 697 mmHg 50%
    08:00 +27°C° 0 mm 3 m/s 697 mmHg 47%
    09:00 +28°C° 0 mm 3 m/s 697 mmHg 43%
    10:00 +30°C° 0 mm 3 m/s 697 mmHg 40%
    11:00 +31°C° 0 mm 3 m/s 697 mmHg 37%
    12:00 +33°C° 0 mm 3 m/s 696 mmHg 35%
    13:00 +34°C° 0 mm 3 m/s 696 mmHg 32%
    14:00 +34°C° 0 mm 3 m/s 696 mmHg 31%
    15:00 +35°C° 0 mm 3 m/s 695 mmHg 29%
    16:00 +35°C° 0 mm 3 m/s 695 mmHg 28%
    17:00 +34°C° 0 mm 3 m/s 696 mmHg 31%
    18:00 +32°C° 0 mm 2 m/s 696 mmHg 34%
    19:00 +31°C° 0 mm 2 m/s 696 mmHg 36%
    20:00 +30°C° 0 mm 2 m/s 697 mmHg 38%
    21:00 +30°C° 0 mm 1 m/s 697 mmHg 40%
    22:00 +29°C° 0 mm 1 m/s 698 mmHg 42%
    23:00 +28°C° 0 mm 1 m/s 697 mmHg 43%

    21 Ianuarie, Luni

    Timp Temperatura Precipitaţii Vânt Presiune Umiditate
    00:00 +28°C° 0 mm 1 m/s 697 mmHg 45%
    01:00 +27°C° 0 mm 1 m/s 697 mmHg 47%
    02:00 +27°C° 0 mm 1 m/s 697 mmHg 50%
    03:00 +26°C° 0 mm 1 m/s 697 mmHg 53%
    04:00 +26°C° 0 mm 1 m/s 697 mmHg 57%
    05:00 +26°C° 0 mm 2 m/s 698 mmHg 53%
    06:00 +27°C° 0 mm 3 m/s 699 mmHg 49%
    07:00 +28°C° 0 mm 4 m/s 699 mmHg 45%
    08:00 +30°C° 0 mm 4 m/s 699 mmHg 42%
    09:00 +32°C° 0 mm 4 m/s 699 mmHg 38%
    10:00 +33°C° 0 mm 4 m/s 699 mmHg 35%
    11:00 +34°C° 0 mm 4 m/s 699 mmHg 32%
    12:00 +35°C° 0 mm 4 m/s 698 mmHg 30%
    13:00 +36°C° 0 mm 4 m/s 697 mmHg 27%
    14:00 +36°C° 0 mm 4 m/s 697 mmHg 27%
    15:00 +37°C° 0 mm 5 m/s 696 mmHg 26%
    16:00 +37°C° 0 mm 5 m/s 695 mmHg 26%
    17:00 +36°C° 0 mm 4 m/s 696 mmHg 26%
    18:00 +35°C° 0 mm 4 m/s 696 mmHg 27%
    19:00 +34°C° 0 mm 3 m/s 696 mmHg 28%
    20:00 +33°C° 0 mm 3 m/s 696 mmHg 30%
    21:00 +33°C° 0 mm 3 m/s 696 mmHg 32%
    22:00 +31°C° 0 mm 3 m/s 696 mmHg 34%
    23:00 +30°C° 0 mm 2 m/s 696 mmHg 37%

    22 Ianuarie, Marţi

    Timp Temperatura Precipitaţii Vânt Presiune Umiditate
    00:00 +29°C° 0 mm 1 m/s 695 mmHg 39%
    01:00 +28°C° 0 mm 1 m/s 695 mmHg 42%
    02:00 +28°C° 0 mm 1 m/s 695 mmHg 44%
    03:00 +27°C° 0 mm 1 m/s 695 mmHg 45%
    04:00 +26°C° 0 mm 1 m/s 695 mmHg 47%
    05:00 +28°C° 0 mm 1 m/s 695 mmHg 44%
    06:00 +29°C° 0 mm 1 m/s 696 mmHg 41%
    07:00 +30°C° 0 mm 1 m/s 696 mmHg 39%
    08:00 +31°C° 0 mm 2 m/s 696 mmHg 37%
    09:00 +34°C° 0 mm 2 m/s 696 mmHg 36%
    10:00 +35°C° 0 mm 3 m/s 696 mmHg 35%
    11:00 +36°C° 0 mm 3 m/s 696 mmHg 33%
    12:00 +37°C° 0 mm 4 m/s 696 mmHg 31%
    13:00 +38°C° 0 mm 4 m/s 696 mmHg 29%
    14:00 +38°C° 0 mm 4 m/s 695 mmHg 28%
    15:00 +38°C° 0 mm 4 m/s 695 mmHg 27%
    16:00 +40°C° 0 mm 4 m/s 695 mmHg 27%
    17:00 +38°C° 0 mm 3 m/s 695 mmHg 29%
    18:00 +37°C° 0 mm 3 m/s 696 mmHg 31%
    19:00 +36°C° 0 mm 3 m/s 696 mmHg 32%
    20:00 +34°C° 0.2 mm 4 m/s 697 mmHg 41%
    21:00 +32°C° 0.2 mm 5 m/s 697 mmHg 49%
    22:00 +29°C° 0.2 mm 6 m/s 697 mmHg 57%
    23:00 +28°C° 0.2 mm 5 m/s 697 mmHg 59%

    23 Ianuarie, Miercuri

    Timp Temperatura Precipitaţii Vânt Presiune Umiditate
    00:00 +28°C° 0.2 mm 5 m/s 697 mmHg 62%
    01:00 +27°C° 0.2 mm 4 m/s 697 mmHg 64%
    02:00 +27°C° 0 mm 4 m/s 697 mmHg 60%
    03:00 +27°C° 0 mm 5 m/s 697 mmHg 56%
    04:00 +26°C° 0 mm 5 m/s 697 mmHg 52%
    05:00 +27°C° 0 mm 5 m/s 697 mmHg 44%
    06:00 +27°C° 0 mm 5 m/s 698 mmHg 35%
    07:00 +27°C° 0 mm 5 m/s 698 mmHg 27%
    08:00 +28°C° 0 mm 5 m/s 698 mmHg 27%
    09:00 +29°C° 0 mm 5 m/s 698 mmHg 27%
    10:00 +32°C° 0 mm 5 m/s 698 mmHg 28%
    11:00 +33°C° 0 mm 4 m/s 697 mmHg 28%
    12:00 +34°C° 0 mm 4 m/s 696 mmHg 28%
    13:00 +35°C° 0 mm 3 m/s 696 mmHg 28%
    14:00 +35°C° 0 mm 3 m/s 696 mmHg 28%
    15:00 +36°C° 0 mm 3 m/s 695 mmHg 28%
    16:00 +36°C° 0 mm 3 m/s 695 mmHg 28%
    17:00 +35°C° 0 mm 2 m/s 695 mmHg 31%
    18:00 +34°C° 0 mm 2 m/s 695 mmHg 33%
    19:00 +32°C° 0 mm 1 m/s 695 mmHg 36%
    20:00 +32°C° 0 mm 1 m/s 695 mmHg 37%
    21:00 +31°C° 0 mm 1 m/s 695 mmHg 39%
    22:00 +31°C° 0 mm 1 m/s 695 mmHg 40%
    23:00 +31°C° 0 mm 1 m/s 695 mmHg 42%
    Arată mai mult